Ironwood, MI

2:05 AM CDT on April 24, 2017 (GMT -0500)
Gogebic-Iron County

Weather History for KIWD - October, 2012

Change the Weather History Date:

Tuesday, October 2, 2012

  Actual Average Record
Temperature  
Mean Temperature 48 °F -  
Max Temperature 66 °F 56 °F 80 °F (2005)
Min Temperature 30 °F 37 °F 23 °F (2003)
Degree Days  
Heating Degree Days 17    
Moisture  
Dew Point 32 °F    
Average Humidity 61    
Maximum Humidity 93    
Minimum Humidity 24    
Precipitation  
Precipitation 0.00 in - - ()
Sea Level Pressure  
Sea Level Pressure 29.91 in    
Wind  
Wind Speed 2 mph (SE)    
Max Wind Speed 9 mph    
Max Gust Speed -    
Visibility 7 miles    
Events      
Averages and records for this station are not official NWS values.
T = Trace of Precipitation, MM = Missing Value Source: NWS Daily Summary

Daily Weather History Graph

Daily Weather History Graph

Search for Another Location

Airport or City:

Trip Planner

Search our weather history database for the weather conditions in past years. The results will help you decide how hot, cold, wet, or windy it might be!

Date:

Astronomy

Oct. 02, 2012 Rise Set
Actual Time 7:01 AM CDT 6:37 PM CDT
Civil Twilight 6:31 AM CDT 7:07 PM CDT
Nautical Twilight 5:56 AM CDT 7:42 PM CDT
Astronomical Twilight 5:20 AM CDT 8:17 PM CDT
Moon 7:37 PM CDT (10/2) 9:40 AM CDT (10/2)
Length of Visible Light 12h 36m
Length of Day
11h 36m
Waning Gibbous, 94% of the Moon is Illuminated
Oct 2
Waning Gibbous
Oct 8
Last Quarter
Oct 15
New
Oct 21
First Quarter
Oct 29
Full

Hourly Weather History & Observations

Time (CDT) Temp. Dew Point Humidity Pressure Visibility Wind Dir Wind Speed Gust Speed Precip Events Conditions
12:55 AM 39.2 °F 35.6 °F 87% 29.91 in 1.2 mi Calm Calm - N/A   Clear
1:15 AM 39.2 °F 35.6 °F 87% 29.92 in 1.8 mi Calm Calm - N/A   Clear
1:35 AM 37.4 °F 35.6 °F 93% 29.92 in 0.5 mi Calm Calm - N/A   Unknown
1:55 AM 37.4 °F 33.8 °F 87% 29.92 in 3.0 mi Calm Calm - N/A   Scattered Clouds
2:15 AM 35.6 °F 30.2 °F 81% 29.93 in 0.2 mi Calm Calm - N/A   Mostly Cloudy
2:35 AM 35.6 °F 33.8 °F 93% 29.93 in 0.5 mi Calm Calm - N/A   Unknown
2:55 AM 35.6 °F 33.8 °F 93% 29.93 in 1.0 mi Calm Calm - N/A   Clear
3:15 AM 33.8 °F 30.2 °F 87% 29.93 in 1.0 mi Calm Calm - N/A   Clear
6:15 AM 30.2 °F 26.6 °F 86% 29.95 in 2.0 mi Calm Calm - N/A   Clear
6:35 AM 30.2 °F 28.4 °F 93% 29.96 in 9.0 mi Calm Calm - N/A   Clear
6:55 AM 30.2 °F 24.8 °F 80% 29.96 in 0.5 mi Calm Calm - N/A   Unknown
7:15 AM 30.2 °F 28.4 °F 93% 29.97 in 10.0 mi Calm Calm - N/A   Clear
7:35 AM 30.2 °F 26.6 °F 86% 29.97 in 3.0 mi Calm Calm - N/A   Scattered Clouds
7:55 AM 30.2 °F 26.6 °F 86% 29.97 in 6.0 mi Calm Calm - N/A   Overcast
8:15 AM 33.8 °F 30.2 °F 87% 29.96 in 1.5 mi Calm Calm - N/A   Mostly Cloudy
8:35 AM 37.4 °F 33.8 °F 87% 29.96 in 0.8 mi Calm Calm - N/A   Unknown
8:55 AM 41.0 °F 37.4 °F 87% 29.97 in 10.0 mi Calm Calm - N/A   Clear
9:15 AM 44.6 °F 39.2 °F 81% 29.97 in 10.0 mi Calm Calm - N/A   Clear
9:55 AM 48.2 °F 42.8 °F 82% 29.97 in 10.0 mi Calm Calm - N/A   Clear
10:35 AM 53.6 °F 41.0 °F 62% 29.96 in 10.0 mi East 4.6 mph - N/A   Clear
12:15 PM 57.2 °F 35.6 °F 44% 29.94 in 10.0 mi ESE 4.6 mph - N/A   Clear
12:35 PM 59.0 °F 33.8 °F 39% 29.93 in 10.0 mi East 4.6 mph - N/A   Clear
12:55 PM 60.8 °F 33.8 °F 36% 29.93 in 10.0 mi SSE 5.8 mph - N/A   Clear
1:15 PM 60.8 °F 32.0 °F 34% 29.92 in 10.0 mi SE 3.5 mph - N/A   Clear
1:35 PM 60.8 °F 33.8 °F 36% 29.91 in 10.0 mi NE 3.5 mph - N/A   Clear
2:55 PM 64.4 °F 33.8 °F 32% 29.88 in 10.0 mi ENE 3.5 mph - N/A   Clear
3:15 PM 64.4 °F 33.8 °F 32% 29.87 in 10.0 mi East 4.6 mph - N/A   Clear
3:35 PM 64.4 °F 32.0 °F 30% 29.86 in 10.0 mi South 3.5 mph - N/A   Clear
3:55 PM 64.4 °F 33.8 °F 32% 29.86 in 10.0 mi South 5.8 mph - N/A   Clear
4:15 PM 64.4 °F 30.2 °F 28% 29.85 in 10.0 mi SSW 6.9 mph - N/A   Clear
4:55 PM 66.2 °F 30.2 °F 26% 29.85 in 10.0 mi SSE 6.9 mph - N/A   Clear
5:15 PM 64.4 °F 30.2 °F 28% 29.84 in 10.0 mi SSE 5.8 mph - N/A   Clear
5:35 PM 64.4 °F 30.2 °F 28% 29.85 in 10.0 mi South 9.2 mph - N/A   Clear
5:55 PM 64.4 °F 26.6 °F 24% 29.85 in 10.0 mi South 5.8 mph - N/A   Clear
7:55 PM 53.6 °F 32.0 °F 44% 29.87 in 10.0 mi SSE 5.8 mph - N/A   Clear
8:15 PM 55.4 °F 30.2 °F 38% 29.87 in 10.0 mi SSE 6.9 mph - N/A   Clear
8:35 PM 55.4 °F 30.2 °F 38% 29.86 in 10.0 mi SE 6.9 mph - N/A   Clear
8:55 PM 55.4 °F 30.2 °F 38% 29.86 in 10.0 mi SE 6.9 mph - N/A   Clear
9:15 PM 55.4 °F 30.2 °F 38% 29.87 in 10.0 mi SE 4.6 mph - N/A   Clear
11:55 PM 44.6 °F 32.0 °F 61% 29.90 in 10.0 mi Calm Calm - N/A   Clear